STARLINK-3352, 51147

Orbit data source: Space-Track

STARLINK-3352, 51147 is a payload satellite owned by SpaceX/Seattle (US) in LEO that was launched on Wed, 19 Jan 2022 UTC via an FALCON 9 launch vehicle from the Air Force Eastern Test Range (AFETR). Payload-class satellites include a variety of spacecraft equipped with specific instruments for various scientific and technological missions. These include communications satellites like Starlink; space stations such as the ISS; scientific satellites like the Hubble; Earth observation satellites from companies like Planet Labs, Umbra, and HawkEye 360; GPS; miniature CubeSats for education and research; and military/defense satellites.

Loading next visibility...
Identifier
51147, 2022-005AV
Orbit
LEO
Country
Flag of USUS
Related business
Manufacturer
SpaceX/Seattle
Mission
Partially operational Commercial Communications
Bus & Motor
STARLINK, Unknown motor
Mass
297 kg wet, ~275 kg dry
Launch date (UTC)
2022-01-19 (4 years ago)
Launch vehicle
FALCON 9
Launch site
Air Force Eastern Test Range (AFETR)
Object type
Payload
Rocket body
Debris
Shape & HBR
Box + 1 Pan, 10.1 m
Radar Cross Section
13.562 m², Large (>1 m²)

Expand to show TLE details & history
Last TLE update: 18 hours ago

TLE from 18 hours ago
0 STARLINK-3352
1 51147U 22005AV  26094.26389518  .00063133  00000-0  23509-2 0  9997
2 51147  53.1894 178.8557 0002985   8.9554 351.1499 15.26902174232675
Epoch: 2026-04-04T06:20Z
TLE epoch observation values (Epoch: 2026-04-04T06:20:00.543Z)
Latitude
0.00002°
Longitude
-108.73272°
Altitude
483.957 km
Speed
7.626 km/s
True Right ascension
11h 55m 25s
True Declination
0° 00' 00"
Sunlit
Object was in full shadow at epoch
Visualization orbit readout
Latitude
Unknown
Longitude
Unknown
Altitude
Unknown
Speed
Unknown
Apparent Right ascension
Unknown
Apparent Declination
Unknown
Sunlit
N/A
Visualization observer readout
Local Sidereal Time
05:43:46
Azimuth
Unknown
Elevation
Unknown
Doppler factor
Unknown
Orbital elements
Apogee altitude
487.38 km
Perigee altitude
483.282 km
Semi-major axis
6,863.468 km
Eccentricity
0.0003
Inclination
53.1894°
RAAN
178.8557°
Arg. of periapsis
8.9554°
True anomaly
351.14464°
Mean anomaly
351.1499°
Eccentric anomaly
351.14727°
Mean motion
3.81705 °/min
Orbital period
94.31 mins
BSTAR
0.0023509
Loading maneuver chart data...
Computing Atmospheric mass density...
Loading historical data...
Loading historical data...
Loading historical data...
Loading historical data...
Loading historical data...
Loading historical data...
Loading historical data...

Documentation

Showing up to 5 results
|